This is the latest recevied weather packets stored in our database for station/object N0MPM-4. If no packets are shown the sender has not sent any weather packets the latest 10 day(s).
| Time | Temp. | Humidity | Pressure | Rain* | Wind** | Luminosity | Snow |
|---|---|---|---|---|---|---|---|
| 1787839979 | 20° C | 74% | 1018.3 hPa | 0 mm | - | - | - |
| 1787839801 | 20° C | 74% | 1018.4 hPa | 0 mm | - | - | - |
| 1787839679 | 20° C | 73% | 1018.3 hPa | 0 mm | - | - | - |
| 1787839440 | 19.44° C | 72% | 1018.3 hPa | 0 mm | - | - | - |
| 1787839379 | 19.44° C | 72% | 1018.4 hPa | 0 mm | - | - | - |
| 1787839279 | 19.44° C | 67% | 1018.3 hPa | 0 mm | - | - | - |
| 1787839079 | 19.44° C | 67% | 1018.3 hPa | 0 mm | - | - | - |
| 1787838779 | 18.89° C | 69% | 1018.3 hPa | 0 mm | - | - | - |
| 1787838720 | 18.89° C | 70% | 1018.4 hPa | 0 mm | - | - | - |
| 1787838528 | 18.89° C | 66% | 1018.4 hPa | 0 mm | - | - | - |
| 1787838479 | 18.89° C | 65% | 1018.4 hPa | 0 mm | - | - | - |
| 1787838360 | 18.89° C | 66% | 1018.4 hPa | 0 mm | - | - | - |
| 1787838179 | 18.89° C | 63% | 1018.3 hPa | 0 mm | - | - | - |
| 1787838002 | 18.33° C | 65% | 1018.3 hPa | 0 mm | - | - | - |
| 1787837879 | 18.33° C | 58% | 1018.3 hPa | 0 mm | - | - | - |
| 1787837640 | 18.33° C | 58% | 1018.3 hPa | 0 mm | - | - | - |
| 1787837579 | 18.33° C | 56% | 1018.3 hPa | 0 mm | - | - | - |
| 1787837279 | 17.78° C | 57% | 1018.3 hPa | 0 mm | - | - | - |
| 1787836979 | 17.78° C | 53% | 1018.3 hPa | 0 mm | - | - | - |
| 1787836920 | 17.78° C | 52% | 1018.3 hPa | 0 mm | - | - | - |
| 1787836751 | 17.22° C | 42% | 1018.3 hPa | 0 mm | - | - | - |
| 1787836679 | 17.78° C | 48% | 1018.3 hPa | 0 mm | - | - | - |
| 1787836560 | 17.22° C | 42% | 1018.3 hPa | 0 mm | - | - | - |
| 1787836379 | 17.22° C | 39% | 1018.2 hPa | 0 mm | - | - | - |
| 1787836200 | 17.22° C | 36% | 1018.2 hPa | 0 mm | - | - | - |
* Rain latest hour (hover to see other rain measurements)
** Current wind speed in m/s (hover to see current wind gust speed)